COSMOS 2499 DEB, 49929

Orbit data source: Space-Track

COSMOS 2499 DEB, 49929 is space debris in LEO originally from a launch on Fri, 23 May 2014 UTC launched from the Plesetsk Missile And Space Complex (PKMTR). Debris objects in space refer to the collection of defunct objects orbiting the Earth. Examples of debris include non-operational satellites, rocket bodies, and fragments generated from explosions, collisions, or faulty payload assembly.

Loading next visibility...
Identifier
49929, 2014-028L
Orbit
LEO
Country
Flag of CISCIS
Related business
Manufacturer
TsNIIKhM
Mission
Spacecraft
Bus & Motor
Unknown
Mass
Unknown
Launch date (UTC)
2014-05-23 (12 years ago)
Launch vehicle
Unknown
Launch site
Plesetsk Missile And Space Complex (PKMTR)
Object type
Payload
Rocket body
Debris
Shape & HBR
Unknown shape, 0.1 m
Radar Cross Section
Small (<0.1 m²)

Expand to show TLE details & history
Last TLE update: 9 hours ago

TLE from 9 hours ago
0 COSMOS 2499 DEB
1 49929U 14028L   25349.80912892  .00001167  00000-0  36960-2 0  9991
2 49929  82.5503  19.1513 0262869  25.1522 336.2123 12.91778048193952
Epoch: 2025-12-15T19:25Z
TLE epoch observation values (Epoch: 2025-12-15T19:25:08.738Z)
Latitude
-0.00009°
Longitude
3.16251°
Altitude
1,113.554 km
Speed
7.382 km/s
True Right ascension
01h 16m 36s
True Declination
0° 00' 00"
Sunlit
Object was in daylight at epoch
Visualization orbit readout
Latitude
Unknown
Longitude
Unknown
Altitude
Unknown
Speed
Unknown
Apparent Right ascension
Unknown
Apparent Declination
Unknown
Sunlit
N/A
Visualization observer readout
Local Sidereal Time
03:22:47
Azimuth
Unknown
Elevation
Unknown
Doppler factor
Unknown
Orbital elements
Apogee altitude
1,493.37 km
Perigee altitude
1,090.135 km
Semi-major axis
7,669.889 km
Eccentricity
0.02629
Inclination
82.5503°
RAAN
19.1513°
Arg. of periapsis
25.1522°
True anomaly
334.95979°
Mean anomaly
336.2123°
Eccentric anomaly
335.58987°
Mean motion
3.23117 °/min
Orbital period
111.41 mins
BSTAR
0.003696
Loading maneuver chart data...
Computing Atmospheric mass density...
Loading historical data...
Loading historical data...
Loading historical data...
Loading historical data...
Loading historical data...
Loading historical data...
Loading historical data...

Documentation

Showing up to 5 results
|